Regional Weather Roundup
Issued by NWS Memphis, TN

Home | Current Version | Previous Version | Text Only | Print | Product List | Glossary On
Versions: 1 2 3 4 5 6 7 8 9 10 11 12 13 14 15 16 17 18 19 20 21 22 23 24 25 26 27 28 29 30 31 32 33 34 35 36 37 38 39 40 41 42 43 44 45 46 47 48 49 50
000
ASUS44 KMEG 251910
RWRMEG
MEMPHIS CWA HOURLY WEATHER ROUNDUP
NATIONAL WEATHER SERVICE MEMPHIS TN
200 PM CDT TUE APR 25 2017

...WEST TENNESSEE...

CITY           SKY/WX    TMP DP  RH WIND       PRES   REMARKS
MEMPHIS INTL   MOSUNNY   79  52  38 S14       29.69F
NWS MEMPHIS      N/A     79 N/A N/A MISG        N/A
JACKSON        SUNNY     78  54  43 S8G18     29.73F
SOMERVILLE     SUNNY     77  52  41 SE9G18    29.70F
BOLIVAR        SUNNY     77  52  41 SE9       29.71F
LEXINGTON      SUNNY     75  55  50 SW7       29.73F
SAVANNAH       SUNNY     75  57  53 VRB6      29.74F
DYERSBURG      SUNNY     77  52  41 S10G18    29.69F
UNION CITY     SUNNY     77  54  44 S14       29.69F HAZE
PARIS          SUNNY     75  54  46 VRB6      29.72F
HUNTINGDON     SUNNY     77  57  50 S8G15     29.71F


...EASTERN ARKANSAS...

CITY           SKY/WX    TMP DP  RH WIND       PRES   REMARKS
JONESBORO      SUNNY     78  52  40 S22       29.63F
WEST MEMPHIS   SUNNY     78  55  44 S23       29.67F
BATESVILLE     SUNNY     79  54  41 SE12G22   29.60F
NEWPORT        SUNNY     79  55  43 MISG      29.62F
WALNUT RIDGE   SUNNY     77  54  44 S23G32    29.62F
BLYTHEVILLE    SUNNY     79  54  41 S13G22    29.67F
SEARCY         SUNNY     79  56  45 S20       29.63F
STUTTGART      SUNNY     81  48  32 S21       29.65F
PINE BLUFF     SUNNY     78  56  46 S13G25    29.64F
MONTICELLO     SUNNY     80  51  36 S10       29.66F


...NORTH MISSISSIPPI...

CITY           SKY/WX    TMP DP  RH WIND       PRES   REMARKS
TUPELO         SUNNY     78  51  38 VRB6      29.75F
OXFORD         SUNNY     77  50  38 S9        29.74F
OLIVE BRANCH   MOSUNNY  N/A N/A N/A S12G23    29.69F
TUNICA         SUNNY     77  54  44 S20       29.69F
CORINTH        SUNNY     77  54  44 SW10      29.74S
GREENWOOD      SUNNY     79  55  43 S14G22    29.72F
COLUMBUS       SUNNY     79  58  48 SW9       29.75F
STARKVILLE     SUNNY     79  54  41 SW8       29.77F
GOLDEN TRIANGL SUNNY     79  52  38 S9        29.73F


...SOUTHEAST MISSOURI...

CITY           SKY/WX    TMP DP  RH WIND       PRES   REMARKS
KENNETT        SUNNY     79  52  38 S18G25    29.64F HAZE
MALDEN         SUNNY     79  50  36 S21       29.66S
WEST PLAINS    SUNNY     76  51  41 S16G32    29.57F
POPLAR BLUFF   SUNNY     75  55  49 S16       29.63F
CAPE GIRARDEAU SUNNY     76  55  48 S13G22    29.65F


...NORTHWEST ALABAMA...

CITY           SKY/WX    TMP DP  RH WIND       PRES   REMARKS
MUSCLE SHOALS  MOSUNNY   75  56  51 VRB3      29.77F


...MIDDLE TENNESSEE...

CITY           SKY/WX    TMP DP  RH WIND       PRES   REMARKS
NASHVILLE      PTSUNNY   74  56  53 E3        29.76F
CLARKSVILLE    MOSUNNY   74  55  51 VRB7      29.73F
COLUMBIA       MOSUNNY   75  63  64 VRB5      29.75F


...WESTERN KENTUCKY...

CITY           SKY/WX    TMP DP  RH WIND       PRES   REMARKS
PADUCAH        SUNNY     77  51  40 SE14      29.68F
FORT CAMPBELL  SUNNY     74  56  53 CALM      29.73F


...CENTRAL ARKANSAS...

CITY           SKY/WX    TMP DP  RH WIND       PRES   REMARKS
LITTLE ROCK    MOSUNNY   79  56  45 S16       29.61F


SKY/WX REPORTED AS FAIR MEANS FEW OR NO CLOUDS BELOW
12 THOUSAND FEET.





USA.gov is the U.S. government's official web portal to all federal, state and local government web resources and services.